Terminal Aerodrome Forecast
Issued by NWS Charleston, WV

Current Version | Previous Version | Graphics & Text | Print | Product List | Glossary On
Versions: 1 2 3 4 5 6 7 8 9 10 11 12 13 14 15 16 17 18 19 20 21 22 23 24 25 26 27 28 29 30 31 32
653
FTUS41 KRLX 011114 AAC
TAFBKW
TAF AMD
KBKW 011114Z 0111/0206 VRB03KT 1/4SM FG OVC002
     FM011300 VRB03KT 4SM BR SCT013
     FM011500 19004KT P6SM FEW050=

USA.gov is the U.S. government's official web portal to all federal, state and local government web resources and services.